TimeCDT,TemperatureF,Dew PointF,Humidity,Sea Level PressureIn,VisibilityMPH,Wind Direction,Wind SpeedMPH,Gust SpeedMPH,PrecipitationIn,Events,Conditions,WindDirDegrees,DateUTC
12:51 AM,82.9,71.1,67,29.99,10.0,SSW,4.6,-,N/A,,Partly Cloudy,210,2013-07-19 05:51:00
1:51 AM,82.0,71.1,69,29.98,10.0,SW,5.8,-,N/A,,Partly Cloudy,220,2013-07-19 06:51:00
2:51 AM,81.0,71.1,72,29.98,10.0,SSW,6.9,-,N/A,,Clear,210,2013-07-19 07:51:00
3:51 AM,80.1,71.1,74,29.97,10.0,SSW,6.9,-,N/A,,Clear,210,2013-07-19 08:51:00
4:51 AM,79.0,70.0,74,29.96,10.0,WSW,4.6,-,N/A,,Partly Cloudy,250,2013-07-19 09:51:00
5:51 AM,78.1,70.0,76,29.96,9.0,WSW,4.6,-,N/A,,Scattered Clouds,240,2013-07-19 10:51:00
6:51 AM,80.1,70.0,71,29.97,10.0,SSW,3.5,-,N/A,,Scattered Clouds,200,2013-07-19 11:51:00
7:51 AM,82.0,70.0,67,29.98,10.0,SW,6.9,-,N/A,,Partly Cloudy,230,2013-07-19 12:51:00
8:51 AM,86.0,70.0,59,29.98,10.0,SW,6.9,-,N/A,,Partly Cloudy,220,2013-07-19 13:51:00
9:51 AM,88.0,71.1,57,29.97,10.0,West,8.1,-,N/A,,Partly Cloudy,270,2013-07-19 14:51:00
10:51 AM,90.0,70.0,52,29.97,10.0,SSW,8.1,-,N/A,,Partly Cloudy,200,2013-07-19 15:51:00
11:51 AM,93.0,70.0,47,29.96,10.0,Variable,4.6,-,N/A,,Partly Cloudy,0,2013-07-19 16:51:00
12:51 PM,93.9,71.1,47,29.94,10.0,SSW,6.9,-,N/A,,Scattered Clouds,210,2013-07-19 17:51:00
1:51 PM,95.0,70.0,44,29.92,10.0,South,3.5,-,N/A,,Scattered Clouds,180,2013-07-19 18:51:00
2:51 PM,96.1,69.1,41,29.88,10.0,West,8.1,-,N/A,,Scattered Clouds,260,2013-07-19 19:51:00
3:51 PM,97.0,70.0,41,29.87,10.0,West,9.2,-,N/A,,Scattered Clouds,280,2013-07-19 20:51:00
4:51 PM,97.0,69.1,40,29.86,10.0,SW,8.1,-,N/A,,Scattered Clouds,230,2013-07-19 21:51:00
5:51 PM,95.0,68.0,41,29.85,10.0,WSW,10.4,19.6,N/A,,Mostly Cloudy,250,2013-07-19 22:51:00
6:05 PM,93.2,69.8,46,29.89,10.0,West,12.7,-,N/A,Thunderstorm,Thunderstorm,260,2013-07-19 23:05:00
6:35 PM,91.4,69.8,49,29.88,10.0,SSW,12.7,-,N/A,,Mostly Cloudy,210,2013-07-19 23:35:00
6:51 PM,91.9,70.0,48,29.85,10.0,SSW,10.4,-,N/A,,Mostly Cloudy,210,2013-07-19 23:51:00
7:51 PM,89.1,71.1,55,29.85,10.0,SSW,9.2,17.3,N/A,,Mostly Cloudy,210,2013-07-20 00:51:00
8:51 PM,87.1,70.0,57,29.86,10.0,SSW,10.4,-,N/A,,Mostly Cloudy,210,2013-07-20 01:51:00
9:51 PM,84.9,68.0,57,29.87,10.0,SSW,11.5,-,N/A,,Scattered Clouds,210,2013-07-20 02:51:00
10:51 PM,82.9,68.0,60,29.88,10.0,SSW,9.2,-,N/A,,Scattered Clouds,210,2013-07-20 03:51:00
11:51 PM,82.0,68.0,62,29.88,10.0,SW,8.1,-,N/A,,Mostly Cloudy,220,2013-07-20 04:51:00